Wind_Speed
29 28 28 28 28 27 26 26 26 25 23 23 23 23 22 21 21 21 21 23 24 23 22 21 21 21 21 21 20 20 19 19 18 17 16 16 16 15 15 15 15 15 15 15 15 14 15 16 18 19 18 18 18 18 19 20 20 21 23 22 21 21 19 19 20 19 18 18 19 19 19 18 17 17 15 15 15 16 17 18 18 19 20 19 18
30 28 27 28 28 27 27 26 26 25 24 23 23 23 22 21 21 21 21 23 23 22 22 21 21 21 21 20 20 20 19 18 18 17 17 17 16 15 14 15 15 15 15 15 16 15 14 16 17 20 19 19 19 20 21 21 21 21 24 23 22 22 20 20 19 18 18 17 17 17 18 17 16 15 13 12 12 14 16 17 18 19 19 18 18
29 29 27 28 28 27 27 27 27 25 24 23 24 24 23 21 21 21 21 21 22 22 21 21 21 21 21 20 20 19 19 18 17 17 17 16 16 15 14 14 14 15 16 16 16 16 15 16 18 20 21 21 22 22 22 21 21 21 22 22 21 21 20 19 19 19 17 16 14 14 15 15 14 13 11 10 11 12 14 15 16 17 17 16 17
27 28 28 28 28 28 28 27 27 26 25 24 24 24 23 22 21 21 20 21 21 21 21 20 21 21 20 20 19 19 18 17 17 16 16 16 16 15 14 14 13 14 16 17 17 17 17 17 19 22 23 24 24 24 24 24 23 23 22 20 19 19 19 18 17 16 15 14 13 11 11 12 12 11 11 11 11 11 12 13 14 14 15 14 14
26 28 28 28 28 28 28 28 27 26 25 24 23 23 23 22 21 21 20 20 20 20 20 20 20 20 20 19 19 18 17 16 16 16 16 16 16 15 14 14 13 14 16 17 18 18 18 19 22 24 25 25 26 26 26 26 25 24 22 20 18 17 17 16 14 13 12 12 12 10 9 8 9 9 10 12 12 11 10 11 13 13 13 13 13
26 28 28 29 28 28 28 28 27 26 25 24 23 23 22 21 21 20 20 20 20 19 19 19 19 19 19 18 18 17 16 15 15 15 15 16 15 15 14 13 13 14 16 17 18 19 20 21 22 25 27 27 27 27 26 25 23 23 21 19 17 14 12 12 12 11 11 12 11 10 7 5 7 9 10 11 11 11 10 9 11 13 13 13 13
25 27 28 29 29 28 28 28 27 26 25 24 23 22 21 20 20 20 19 19 19 19 18 17 17 17 17 17 16 15 15 14 14 14 15 15 15 14 14 13 13 14 15 16 18 19 21 22 23 27 28 28 27 26 25 23 22 21 19 17 14 11 9 10 11 10 11 13 12 11 7 4 6 9 9 10 10 10 10 9 9 11 12 12 11
25 27 27 29 29 29 28 28 27 26 25 24 23 22 21 20 19 19 19 18 18 18 17 16 16 16 16 16 15 14 14 14 14 14 15 14 14 14 14 13 13 13 14 15 17 19 21 22 25 28 28 27 27 26 24 23 21 20 18 15 11 10 10 11 10 8 9 11 12 12 9 6 8 11 10 9 8 8 9 9 10 10 11 11 10
25 26 27 29 29 29 28 28 27 26 25 24 23 22 20 19 18 18 17 17 17 17 16 16 15 14 15 15 14 13 13 15 15 14 14 14 14 14 14 13 13 13 13 15 17 19 20 22 25 27 27 27 26 25 23 22 21 19 16 12 10 10 10 11 9 8 8 9 9 11 8 7 11 12 10 9 8 8 8 9 10 10 10 11 11
25 27 28 29 30 29 28 27 26 25 24 24 23 22 20 19 18 17 16 16 16 15 15 15 15 14 14 14 14 13 13 14 15 14 14 14 14 14 14 13 13 13 13 14 16 18 20 21 23 25 26 26 25 24 23 21 19 16 13 10 10 10 10 11 11 10 8 9 9 10 7 6 9 11 11 11 11 11 11 11 11 11 12 12 12
25 28 29 29 30 29 28 27 26 25 24 24 23 22 21 19 18 17 16 15 15 14 14 14 14 13 13 13 14 13 13 13 14 14 14 14 14 14 14 13 13 13 13 14 15 17 19 21 22 25 26 25 25 24 22 19 16 13 10 9 10 10 11 12 12 11 10 9 9 9 6 7 9 12 12 13 13 13 13 13 12 12 12 12 12
27 28 29 29 30 28 28 27 26 25 24 24 22 22 21 20 18 17 17 16 15 14 13 12 13 13 13 13 12 13 12 13 13 14 14 14 14 13 13 13 13 13 13 13 15 16 18 20 21 25 27 26 26 23 20 17 15 12 9 8 9 10 10 11 11 12 10 8 8 7 8 9 12 13 14 14 14 14 13 13 13 13 13 12 12
29 29 30 29 29 29 28 27 26 25 24 23 22 21 20 19 19 18 18 17 16 14 13 12 12 12 12 12 12 12 12 12 12 13 13 14 13 13 13 12 12 13 13 13 14 15 17 20 22 25 27 27 25 22 19 17 15 12 9 8 8 8 9 10 11 11 10 8 7 7 8 11 14 14 15 15 15 15 14 14 14 14 13 13 13
31 30 30 29 29 28 28 27 26 25 24 23 22 21 20 19 19 19 18 17 16 15 13 12 12 12 12 12 12 12 12 12 12 13 13 13 13 13 12 12 12 12 13 13 14 15 16 19 23 26 28 26 23 21 19 16 13 11 9 8 8 9 9 11 12 11 9 8 8 7 7 11 14 14 15 15 15 14 13 13 13 14 14 13 14
31 30 30 29 29 29 28 27 26 25 24 23 22 22 21 20 20 19 18 17 16 15 14 13 12 12 11 12 12 13 12 12 12 12 12 12 13 13 12 12 12 13 13 13 14 14 15 19 24 27 27 25 23 20 18 15 12 10 8 8 9 10 10 12 13 11 10 9 9 8 7 9 12 13 14 14 14 14 13 13 13 14 14 14 14
29 29 29 29 30 29 29 27 25 24 23 23 23 22 22 21 20 19 18 16 16 15 14 13 12 12 13 13 13 13 12 13 12 12 12 12 13 12 11 12 12 13 13 13 14 15 16 20 24 26 26 24 22 19 16 14 10 8 7 8 10 10 11 12 13 12 11 10 9 9 8 8 10 13 13 13 13 13 13 13 14 13 14 14 14
29 29 30 30 30 30 28 27 25 24 23 23 23 22 22 21 20 19 17 16 16 15 15 13 13 14 15 15 15 13 12 12 12 12 12 13 13 12 11 11 13 13 13 13 14 14 16 20 23 24 25 23 21 19 16 12 8 6 5 8 10 10 11 12 12 12 11 10 9 9 9 7 8 11 12 12 12 12 12 13 14 13 14 14 14
28 30 31 30 30 29 28 26 25 24 24 24 24 23 22 21 20 18 17 16 16 16 15 13 15 16 16 15 14 13 11 11 11 12 12 13 12 11 10 11 12 13 13 13 13 14 16 19 22 23 24 22 20 19 16 11 7 5 5 7 8 8 10 11 11 12 10 9 9 9 8 8 7 8 10 10 11 11 12 13 13 13 14 13 13
29 32 31 30 30 29 27 26 25 25 25 24 24 23 22 21 19 19 18 17 17 16 15 15 17 17 16 15 13 12 11 11 10 11 12 12 12 10 11 12 12 13 14 13 13 14 15 17 21 23 22 21 20 19 15 10 7 5 3 5 7 7 8 9 11 11 9 8 9 9 8 8 6 6 7 9 9 10 11 12 13 13 13 13 13
29 32 31 30 29 29 28 27 26 25 25 24 24 23 21 20 19 19 18 18 17 16 16 17 18 17 15 14 13 13 12 12 11 11 12 12 12 11 11 12 12 13 14 14 13 13 15 16 20 22 21 20 19 17 14 10 8 6 3 4 6 6 7 8 10 10 8 7 8 8 8 7 6 5 5 7 8 9 10 11 11 12 12 12 12
29 33 30 30 30 29 29 27 26 25 25 24 23 22 21 20 19 18 18 17 16 16 16 17 18 16 15 14 13 13 12 12 11 10 11 12 12 11 12 12 12 13 14 14 13 13 14 16 18 20 19 18 18 17 13 10 8 7 4 3 4 5 6 7 8 8 7 6 6 6 7 7 6 5 5 6 7 7 8 9 10 10 10 10 10
31 33 30 31 30 30 29 27 27 26 25 24 23 23 21 21 20 19 18 17 16 17 18 18 18 15 14 14 13 12 12 11 10 9 9 10 11 11 12 11 12 13 14 14 13 14 14 15 16 18 18 18 19 17 13 10 7 5 2 1 3 4 5 6 7 7 7 6 5 5 5 6 6 6 7 7 7 7 6 7 8 8 8 9 9
30 34 32 31 31 30 29 27 27 26 26 25 24 23 22 22 21 20 19 18 18 18 19 19 17 15 14 14 13 12 11 10 10 8 8 9 10 11 11 10 12 13 13 14 13 14 14 14 14 16 18 19 19 17 13 9 5 3 0 3 4 4 4 5 6 7 6 5 5 5 4 5 5 5 6 6 7 7 7 7 7 7 7 7 8
30 34 32 32 30 29 28 27 26 27 27 25 24 23 23 22 21 21 20 19 19 19 19 19 17 15 15 14 13 12 11 11 11 9 8 9 9 11 11 10 11 13 14 15 14 14 14 14 14 15 17 18 18 16 12 8 5 3 2 3 4 5 3 3 4 6 6 4 4 5 4 4 4 4 5 5 6 6 6 7 7 7 7 7 7
29 33 32 31 30 28 27 27 27 27 26 25 24 23 22 22 22 21 20 20 19 20 19 19 18 17 16 14 13 12 11 12 12 10 8 9 9 10 11 10 11 12 14 15 15 15 14 14 13 14 15 16 16 15 12 8 5 4 4 4 5 6 5 5 4 4 5 5 4 4 3 3 3 3 4 5 5 5 5 6 6 6 7 7 7
29 32 32 31 29 29 27 27 27 27 25 24 23 23 22 22 22 22 21 21 20 20 20 19 19 17 15 14 14 14 13 13 13 11 10 10 10 10 10 10 10 11 13 15 16 15 14 13 13 13 13 14 14 13 11 8 4 4 6 5 6 7 6 6 5 4 4 5 4 3 3 3 3 3 4 4 4 4 5 5 5 5 6 6 7
30 31 31 31 30 29 28 27 27 27 26 24 24 23 22 22 22 22 22 22 21 21 20 20 19 17 15 15 15 15 14 13 13 12 12 11 10 10 9 8 8 10 12 15 16 15 14 13 12 12 12 12 12 12 11 7 3 5 8 7 7 8 7 7 7 6 5 4 4 4 3 2 2 3 3 3 3 3 4 4 4 5 5 5 5
28 30 30 30 30 29 29 28 27 28 27 26 25 23 22 22 22 22 22 22 21 21 20 20 19 16 16 16 15 15 14 13 14 13 12 12 10 9 8 7 8 10 13 15 16 15 14 14 13 13 13 12 11 12 11 7 3 5 8 8 7 8 9 9 7 7 6 4 4 3 2 2 2 3 3 3 3 3 3 4 4 4 4 4 4
25 29 30 30 30 30 30 29 29 29 28 27 25 23 22 22 22 22 22 21 21 20 20 19 17 16 16 15 15 16 15 14 14 14 12 12 12 10 8 8 9 11 13 15 16 15 14 14 14 15 14 13 12 10 10 8 5 7 6 6 7 8 10 9 8 7 5 3 2 2 2 2 2 2 3 3 3 3 3 4 4 4 4 4 3
23 27 29 30 29 29 30 30 29 28 28 27 26 24 23 23 21 20 20 21 20 20 19 18 16 16 16 15 15 15 15 14 15 14 13 12 12 11 10 11 12 13 14 14 15 15 14 15 15 16 15 14 12 8 8 8 8 8 5 5 7 8 10 9 7 6 4 2 2 1 1 2 2 2 2 3 4 4 5 5 5 5 5 4 4
24 27 28 28 27 27 29 29 29 28 28 27 26 25 23 23 21 18 19 20 20 19 18 18 17 17 16 15 15 15 16 15 15 14 13 12 11 11 12 13 13 14 15 14 14 14 14 15 15 14 14 12 11 9 8 9 9 7 7 6 6 7 7 7 6 5 4 2 2 1 1 2 2 2 3 4 5 6 6 6 6 5 5 4 4
26 29 28 27 26 24 26 29 29 28 28 27 26 25 23 23 21 18 18 20 19 19 18 18 17 17 17 16 16 16 15 15 15 14 14 13 12 12 13 14 12 13 13 13 12 11 12 12 12 11 12 12 12 11 11 10 7 6 7 7 7 7 7 7 6 5 4 3 2 1 1 2 3 3 4 5 6 7 7 7 6 6 5 5 5
26 26 26 26 25 23 25 28 29 29 28 27 26 26 23 23 21 18 19 20 20 19 19 18 18 18 18 16 17 16 14 14 14 14 14 13 13 13 12 12 11 11 11 11 10 11 10 10 11 11 11 13 13 12 11 9 7 5 6 7 8 8 7 8 7 5 4 3 2 1 1 2 3 4 4 5 6 6 7 7 7 6 6 6 6
24 24 24 23 24 26 26 26 29 29 28 27 27 26 24 22 21 19 20 20 19 20 19 18 18 18 19 18 17 16 15 14 14 15 14 14 14 13 11 11 11 11 10 10 11 12 11 11 12 11 11 12 11 10 10 8 7 6 6 7 8 7 6 7 6 5 4 3 2 2 2 3 3 4 4 5 5 5 6 5 5 6 8 9 10
23 24 24 23 24 27 26 28 30 29 29 29 28 27 23 21 20 19 20 19 19 20 19 18 17 18 19 19 17 16 15 14 15 16 15 14 14 13 12 12 11 11 9 10 13 12 12 12 11 10 11 11 10 10 10 8 8 7 7 7 8 7 7 7 6 5 5 3 2 3 4 4 3 3 4 5 6 6 5 5 6 8 10 12 13
24 24 24 24 25 27 28 30 32 31 31 29 28 26 22 20 20 20 20 19 19 20 19 17 16 18 20 19 17 16 15 15 16 16 16 15 15 13 13 13 12 11 11 13 14 12 12 12 11 11 12 12 11 11 10 9 8 8 8 8 8 7 7 7 6 6 5 3 3 4 4 4 3 3 4 5 6 6 6 7 8 9 10 12 12
24 23 23 22 23 27 29 31 32 32 31 29 27 26 22 21 21 21 21 20 20 20 19 17 16 18 19 18 17 16 16 16 16 16 17 17 15 14 14 14 13 12 13 14 14 13 12 12 13 12 11 12 11 10 11 10 9 10 9 9 9 8 7 7 7 6 6 5 5 4 4 4 4 4 4 4 6 6 7 8 8 8 8 8 9
21 19 18 16 20 27 29 30 32 33 32 30 27 25 24 24 22 22 22 20 20 20 19 17 17 18 19 18 17 16 16 17 17 17 17 17 16 15 15 14 14 13 13 14 14 13 12 12 13 13 11 10 10 10 11 11 11 11 11 9 9 9 8 7 7 7 7 6 5 4 4 4 5 5 4 4 5 6 7 9 9 8 6 5 6
16 13 13 16 22 26 27 30 32 33 32 30 28 26 26 25 23 22 22 21 20 20 19 17 18 19 19 18 17 17 17 17 18 18 18 17 16 16 15 15 14 13 13 14 15 14 12 13 12 12 11 10 10 10 11 12 14 13 11 10 9 9 8 7 7 7 7 6 5 5 5 5 6 6 5 4 5 6 7 8 9 8 6 5 5
11 6 9 17 22 24 27 30 30 31 32 30 28 29 28 25 23 23 23 22 21 20 20 18 18 19 19 18 18 17 17 17 17 18 18 18 16 16 16 15 14 13 14 15 16 14 12 13 12 12 12 12 12 12 12 13 14 13 11 10 9 9 8 7 6 7 8 6 5 6 7 7 7 7 6 5 5 6 7 7 8 8 7 6 5
6 1 5 13 21 25 29 27 27 31 32 30 30 29 28 26 24 24 23 22 21 21 20 19 19 19 18 18 18 17 17 17 17 17 17 18 17 16 15 14 14 14 15 15 15 15 12 12 13 12 12 12 13 14 14 14 14 14 12 10 10 9 9 8 7 8 8 6 5 6 7 8 7 7 7 6 6 6 7 7 8 7 7 6 5
4 2 2 12 22 25 26 24 26 32 31 28 29 27 25 24 23 22 21 20 21 20 19 18 18 18 18 18 17 17 17 18 18 17 16 16 17 15 13 13 14 14 15 15 15 14 12 12 14 14 12 10 11 14 15 14 14 14 13 12 11 9 8 8 8 8 8 6 6 5 6 8 7 7 7 6 6 7 7 7 8 8 7 6 5
7 7 7 15 22 20 20 19 11 17 25 23 23 24 22 22 20 18 18 19 20 19 17 17 18 18 18 17 17 17 18 18 18 17 15 14 15 14 11 12 14 15 15 15 15 14 13 14 14 14 14 12 11 13 14 13 12 12 13 13 12 11 9 8 7 7 7 7 7 7 7 8 8 8 8 8 8 8 8 8 7 7 7 6 5
11 8 9 16 22 18 18 18 11 9 18 19 17 19 19 20 19 17 17 18 19 18 17 17 18 18 18 18 17 17 17 18 18 17 15 13 13 13 12 13 15 15 16 16 15 14 14 15 15 15 15 14 14 14 14 13 10 11 13 12 12 12 9 8 9 7 6 7 7 8 8 10 9 9 9 9 8 8 8 7 7 7 6 6 5
12 8 9 16 21 18 20 23 17 15 20 21 22 21 20 21 21 20 20 20 20 19 19 20 20 19 19 19 17 16 16 17 18 16 15 13 13 13 13 15 15 16 16 15 14 14 14 15 16 16 15 13 14 15 15 13 10 10 11 10 10 11 11 12 11 7 6 7 8 8 9 10 10 9 10 10 9 8 8 7 6 7 6 5 4
11 8 11 15 19 20 22 25 24 23 22 22 27 28 24 24 26 26 25 24 23 22 22 22 22 21 19 18 18 16 16 16 17 15 14 13 12 12 14 15 15 16 15 14 14 14 14 16 16 16 14 12 12 14 16 14 11 12 13 9 7 7 11 16 14 10 8 7 7 8 9 10 10 9 10 10 9 9 8 7 6 6 6 6 5
12 10 13 17 21 21 22 25 25 24 22 21 27 29 25 26 27 28 27 25 24 23 22 21 21 20 18 18 18 16 15 15 16 15 14 13 12 12 14 15 15 15 13 14 15 14 15 17 17 15 14 13 12 14 16 15 15 16 14 12 9 5 7 13 14 14 14 11 9 8 9 9 9 9 9 9 8 8 8 7 6 6 6 6 6
14 13 14 18 22 20 21 25 24 20 20 22 25 27 26 26 26 27 27 25 23 22 21 20 20 19 17 17 17 16 15 15 15 14 14 14 13 13 14 15 15 14 13 15 16 15 16 17 17 16 15 14 13 14 17 17 18 18 15 14 12 7 8 13 13 12 15 17 13 10 10 10 10 9 8 8 8 8 7 7 6 6 5 6 7
15 13 15 17 20 20 22 26 24 20 21 22 23 25 25 24 24 27 27 25 23 22 20 19 20 19 18 17 17 16 15 15 15 15 15 15 14 14 15 15 15 14 14 15 16 16 18 18 17 17 16 15 14 14 17 17 17 17 16 15 12 10 12 14 12 12 14 18 17 15 14 12 11 10 9 9 9 8 7 6 6 6 5 7 8
16 15 17 18 19 21 22 23 22 21 23 25 23 22 23 24 25 26 26 24 23 21 19 19 20 20 19 18 18 17 15 16 16 17 16 15 15 15 15 15 15 14 14 15 16 17 17 17 17 17 16 16 15 15 15 16 16 16 15 15 13 14 16 16 15 14 15 17 18 18 17 15 14 12 11 10 9 9 7 5 6 6 6 7 8
20 20 21 19 19 21 21 22 22 24 27 28 26 24 23 24 27 26 25 23 21 20 19 19 20 21 21 19 18 18 18 18 18 17 16 15 15 15 14 15 15 15 15 15 16 16 16 16 16 16 16 16 16 15 14 15 17 16 15 14 14 14 15 15 16 15 16 16 16 19 19 15 14 13 12 10 8 8 8 7 6 6 6 6 7
Wind_Direction
161 158 158 155 157 157 155 153 148 145 140 136 133 133 135 137 139 139 142 147 149 145 144 142 143 142 142 141 139 138 134 132 128 123 120 115 109 102 97 93 92 90 91 91 90 92 91 96 105 106 102 103 102 100 102 102 98 95 92 88 86 86 88 90 93 95 97 98 95 94 93 92 90 87 84 84 87 91 91 88 86 85 84 84 84
161 158 159 156 158 157 155 153 149 146 140 137 134 135 135 138 140 140 142 146 149 147 146 145 145 144 144 143 141 139 136 133 129 126 123 118 111 104 100 96 95 95 95 94 93 94 93 95 107 111 106 104 104 102 105 104 98 92 90 89 88 87 86 87 90 90 89 90 91 93 95 93 89 88 88 89 91 93 93 91 86 85 85 86 86
161 158 160 157 159 158 156 154 150 146 141 138 136 136 136 138 140 141 142 144 149 150 149 148 147 146 145 145 143 140 137 134 131 129 126 121 115 108 103 100 98 97 97 97 98 96 94 98 106 109 106 105 103 103 104 102 99 94 90 89 88 90 90 88 86 82 78 78 79 84 90 90 88 87 87 88 92 97 95 92 89 86 86 86 86
164 159 160 158 160 159 157 154 151 147 142 140 137 137 138 140 141 141 141 142 148 151 152 151 150 148 146 145 144 142 138 136 134 131 129 125 119 114 108 103 101 99 100 101 101 99 98 102 108 108 106 105 103 103 101 98 95 94 92 91 92 92 92 89 85 82 78 75 70 69 75 80 81 81 85 88 89 96 97 95 94 92 91 88 87
167 162 161 159 160 160 157 155 152 148 144 141 139 139 140 142 142 143 142 142 145 150 154 153 152 150 149 147 145 142 140 139 137 136 133 129 123 118 112 108 106 103 103 103 104 104 103 105 110 109 108 107 106 104 101 99 95 93 91 92 96 95 91 86 81 81 78 74 69 64 66 67 69 73 82 88 88 92 97 100 100 97 97 94 89
169 164 162 160 160 161 158 156 153 150 146 143 140 140 142 143 144 144 143 143 144 148 152 154 154 153 152 149 148 144 141 142 142 141 138 131 125 121 115 112 111 105 103 104 106 108 108 109 111 111 111 110 108 106 103 100 97 94 90 88 89 87 86 84 83 85 77 69 62 56 62 65 71 79 85 89 87 89 92 103 109 104 100 100 97
171 166 163 161 161 162 160 157 155 152 148 146 143 142 143 143 143 144 144 145 145 146 149 152 154 154 154 153 150 148 146 147 148 147 143 135 129 125 118 116 114 108 105 104 107 110 113 114 115 115 115 113 110 107 103 99 95 91 88 86 85 85 84 86 89 84 71 62 54 49 57 74 87 93 96 97 94 94 95 104 119 118 109 102 102
171 168 164 163 163 162 161 159 157 154 151 149 148 146 145 143 143 144 144 145 146 146 147 150 151 153 154 154 152 151 152 152 154 153 147 140 136 131 123 122 120 113 109 106 108 113 116 118 119 120 119 116 112 107 102 98 94 90 88 89 94 99 91 87 85 77 64 55 52 48 52 81 101 102 106 106 103 102 101 104 116 124 119 109 108
171 169 165 164 164 163 162 161 159 156 154 153 153 151 148 145 145 145 145 145 147 147 148 150 150 151 152 152 152 151 151 155 157 156 152 147 144 138 129 128 125 117 112 109 110 114 119 121 122 125 123 118 112 107 103 99 95 92 92 99 108 104 90 85 80 74 59 46 44 34 40 80 96 99 103 105 104 104 102 103 108 109 110 107 102
173 168 165 165 164 163 163 162 161 159 158 158 157 156 153 150 149 150 149 148 148 148 149 151 152 153 153 153 153 150 148 153 158 159 157 154 152 145 136 134 131 125 118 112 111 116 121 124 126 128 125 119 113 108 106 101 96 94 98 111 110 97 80 72 67 62 46 34 24 14 33 82 88 91 92 93 95 97 98 99 102 100 99 100 99
173 169 165 164 164 164 164 164 163 163 163 162 161 159 157 155 155 156 156 155 153 151 150 151 154 156 156 156 155 153 149 151 157 160 160 160 160 152 144 142 138 130 122 115 114 117 123 127 130 131 127 120 115 111 108 103 98 97 106 110 98 87 73 64 57 50 35 21 9 15 61 94 90 91 88 89 91 93 97 97 101 101 97 99 103
172 168 165 164 164 163 164 166 166 167 167 165 165 163 160 160 161 163 163 163 160 155 153 152 155 157 158 158 157 156 153 153 155 160 162 163 165 158 152 148 142 134 128 123 120 120 126 131 133 132 128 121 117 114 111 106 104 106 112 106 92 84 73 65 54 42 30 17 14 40 82 94 90 89 88 90 92 94 94 93 97 98 93 94 97
171 168 164 163 162 163 166 168 170 170 170 168 168 166 165 165 166 169 170 169 165 159 157 157 157 157 159 159 159 158 155 153 156 161 163 165 168 164 158 154 146 140 136 131 126 125 128 134 136 132 127 122 119 117 112 109 109 116 122 117 102 91 79 69 53 38 31 25 34 59 80 88 88 86 87 91 92 92 90 88 90 92 92 93 93
170 167 163 161 161 163 166 169 173 173 172 170 169 169 170 171 173 175 175 173 168 163 162 163 162 162 162 163 164 162 157 153 156 161 162 167 170 168 163 157 151 146 143 138 131 128 130 135 138 133 127 123 121 118 114 112 114 123 133 128 108 90 77 65 50 39 37 37 47 60 70 83 87 87 89 90 90 89 87 86 87 89 91 90 92
170 165 162 160 160 163 168 172 175 174 173 171 171 173 175 176 178 179 178 176 171 167 168 169 168 168 167 168 167 162 158 156 157 160 163 167 170 171 164 158 157 152 147 144 137 131 131 136 139 133 127 125 122 119 115 113 119 134 144 127 103 86 73 59 50 48 48 46 52 57 61 80 90 92 92 91 91 89 86 85 85 89 89 89 92
169 166 164 161 162 165 169 172 174 174 172 172 173 175 178 180 181 183 181 178 173 171 173 174 172 168 165 164 163 159 158 160 160 161 163 167 171 172 163 159 159 154 151 149 142 135 132 137 139 134 129 127 124 120 115 113 124 144 145 113 92 81 69 56 50 51 52 50 52 52 55 70 87 93 94 93 93 90 87 87 86 87 87 88 90
172 169 167 165 165 167 169 171 173 173 172 173 175 177 179 181 182 183 181 179 175 175 177 177 171 162 157 155 153 152 154 158 161 163 162 169 175 170 163 162 160 155 154 151 145 138 135 139 141 136 132 129 125 121 114 115 132 141 121 91 78 69 62 53 49 50 50 51 50 50 52 58 76 91 95 95 95 93 89 87 86 85 86 86 86
175 172 170 168 166 167 167 169 172 172 173 174 176 178 179 180 181 181 181 180 177 178 180 175 165 158 154 150 149 146 146 149 156 165 162 169 174 162 159 166 162 157 156 153 147 141 135 140 143 139 135 132 128 124 117 121 138 123 96 86 76 61 53 49 45 43 48 54 52 52 52 52 61 81 92 94 95 94 91 89 86 84 84 84 84
174 174 173 171 166 166 168 168 170 169 172 173 174 175 177 179 179 179 180 180 179 180 179 171 163 158 154 151 150 145 143 143 146 160 161 167 169 152 153 166 166 160 159 156 150 143 136 138 144 143 140 135 132 128 122 129 140 126 102 84 75 58 45 39 32 31 44 57 58 57 54 53 54 65 84 92 94 94 93 91 89 86 84 84 85
173 176 175 172 167 167 169 169 168 169 171 171 171 171 173 176 175 178 178 178 180 178 174 170 163 159 158 155 153 149 147 146 142 154 161 168 169 154 154 165 168 164 162 160 155 147 137 135 142 148 145 139 135 131 130 138 147 150 148 83 71 57 38 29 24 25 37 54 61 62 61 64 62 65 79 88 90 91 91 89 89 89 88 87 87
173 177 177 172 168 170 170 169 169 170 170 168 168 168 169 172 173 176 176 179 178 173 172 170 165 162 162 158 156 154 150 146 142 151 161 170 172 161 158 165 170 168 165 162 160 152 141 135 138 147 150 146 139 133 134 141 151 159 154 90 62 41 28 28 21 22 33 46 57 61 66 73 68 64 67 70 73 76 81 86 87 87 88 90 91
174 178 178 174 171 172 171 170 170 169 168 165 164 164 166 170 173 175 176 179 175 173 173 171 171 169 165 161 160 158 152 147 144 147 157 172 175 165 160 166 172 172 169 166 163 155 147 140 136 140 146 149 145 138 140 141 149 158 140 39 7 -0 5 22 18 16 27 37 44 48 57 66 64 60 58 61 65 69 74 80 84 85 84 84 86
177 178 178 176 175 174 173 172 170 167 166 164 163 163 167 170 173 176 177 177 175 176 174 173 177 174 168 166 165 159 153 148 144 146 150 165 171 164 161 164 172 174 174 170 165 158 151 147 142 138 141 148 150 147 150 148 154 173 218 311 321 330 344 6 12 11 17 28 37 39 43 48 53 55 58 61 63 68 72 74 77 79 82 81 80
179 180 179 178 178 177 176 174 171 169 167 164 164 165 168 171 174 177 179 177 176 178 176 178 181 179 176 172 168 159 154 149 148 150 145 153 161 163 166 167 171 173 177 174 167 162 156 153 152 146 146 151 156 161 162 160 175 209 246 281 295 299 313 338 1 12 17 27 37 43 46 44 42 43 51 58 60 62 63 66 69 71 77 79 79
178 180 180 179 181 182 180 177 174 171 169 167 167 168 170 172 175 178 179 179 179 181 180 183 184 183 182 176 171 161 156 154 154 154 141 145 153 160 169 172 174 174 177 178 171 166 161 158 157 155 155 157 164 173 169 164 179 215 239 255 283 290 296 309 333 -0 11 14 18 36 49 50 46 46 53 57 60 62 58 58 64 68 72 76 77
178 180 182 184 185 185 183 181 177 173 172 172 171 172 173 173 176 178 180 182 183 183 183 184 187 188 186 181 175 165 161 159 156 153 143 142 144 148 158 163 172 174 176 179 175 169 165 164 163 160 159 164 175 179 167 157 173 227 247 259 276 283 289 297 303 316 340 351 356 19 44 53 53 56 62 65 62 64 67 63 60 64 71 75 79
179 182 185 188 187 186 186 185 180 177 176 175 176 175 175 176 179 180 182 184 183 185 186 187 191 192 188 184 177 171 167 163 157 154 148 145 146 147 152 156 165 171 173 177 177 174 171 169 167 164 162 170 185 186 175 164 173 229 246 257 268 273 275 280 284 291 303 314 334 7 36 50 66 75 74 73 69 65 72 77 73 72 78 78 81
180 184 186 187 188 190 190 189 185 182 180 178 180 178 178 180 182 184 185 187 186 189 190 191 193 190 186 182 176 174 172 166 162 159 155 153 154 156 161 166 166 166 168 173 177 178 177 176 170 164 162 173 191 195 182 171 180 214 238 253 262 268 267 272 280 286 295 302 323 357 19 35 64 82 85 79 76 77 79 89 91 91 90 86 86
186 186 188 190 191 193 192 190 187 185 183 181 182 181 180 182 185 187 188 190 192 193 193 193 191 186 185 181 176 175 173 170 166 163 163 163 161 162 167 160 153 157 162 168 175 177 178 176 170 166 170 181 194 198 176 164 190 206 226 253 258 263 264 270 280 283 290 300 320 349 2 27 65 78 87 91 91 94 91 93 92 92 92 88 92
197 191 194 194 193 194 193 192 189 188 186 185 185 184 184 185 185 188 190 191 194 196 194 192 188 185 184 182 179 177 175 173 170 168 169 171 166 166 168 156 148 148 151 157 164 166 167 168 169 174 181 188 193 193 173 179 213 217 217 236 243 252 258 264 272 275 276 278 297 329 17 42 65 85 96 103 107 107 100 97 92 89 90 89 93
202 198 199 197 195 194 195 195 193 191 190 188 188 186 186 186 184 186 190 190 193 199 196 192 189 187 187 186 181 178 180 178 176 175 173 174 173 167 163 156 149 145 146 149 150 153 159 165 172 179 184 187 188 193 195 208 226 229 224 221 225 240 249 255 261 261 257 253 270 318 63 78 81 97 110 116 116 116 109 102 97 89 87 87 88
200 200 198 198 200 199 198 198 197 195 193 191 189 187 188 187 186 187 190 188 192 200 200 197 194 192 193 191 185 183 186 183 180 182 179 178 177 168 158 154 148 145 146 141 144 157 161 166 174 176 181 184 190 200 206 213 223 230 226 220 226 241 244 245 250 247 244 240 215 194 102 101 99 109 124 130 131 126 114 99 91 86 83 81 85
206 205 202 202 204 205 204 203 201 199 195 192 190 188 190 190 190 191 192 190 192 200 203 201 200 199 198 194 192 192 191 189 184 182 182 180 177 167 156 157 155 155 151 140 163 184 167 175 190 184 189 194 199 207 208 210 214 221 224 224 232 241 239 234 235 228 218 211 196 198 175 138 122 127 137 147 148 133 114 92 77 77 83 85 91
211 210 209 210 212 212 210 211 207 203 198 194 193 191 192 193 193 193 194 193 194 201 205 204 205 205 202 197 196 199 198 195 187 182 183 181 175 165 160 169 169 168 164 157 185 193 167 182 197 189 196 203 209 212 208 208 207 209 212 219 226 225 217 214 218 210 196 186 178 174 155 141 131 134 146 157 152 132 119 101 82 84 92 93 94
209 208 209 211 217 219 218 219 216 210 202 198 197 193 194 194 194 196 195 197 198 205 209 207 208 207 204 200 199 203 204 198 190 185 186 182 176 170 170 179 177 177 180 175 189 188 168 180 191 194 205 207 211 213 210 206 197 193 191 199 207 208 201 199 208 204 191 189 174 160 148 139 133 138 151 153 144 135 135 132 117 104 98 96 94
207 206 208 208 216 222 220 219 217 213 205 202 200 196 197 195 195 198 197 199 202 208 213 213 213 209 204 202 202 204 205 202 196 191 190 187 181 179 182 187 187 189 190 184 188 187 179 185 191 202 212 206 204 208 209 200 185 180 182 189 193 198 199 194 203 207 203 208 182 165 156 150 148 148 150 150 149 148 148 145 135 119 105 99 98
205 203 205 208 217 217 214 214 214 213 208 203 200 197 199 200 198 198 198 200 203 209 215 217 217 211 205 204 205 207 207 206 204 198 194 192 186 186 190 192 194 195 191 186 188 191 193 196 193 197 206 203 201 205 204 196 184 181 180 185 186 187 193 194 203 212 216 217 193 180 175 167 163 159 152 158 168 162 156 154 149 141 124 110 103
203 200 203 213 218 211 210 212 212 214 211 202 197 194 196 203 202 200 200 202 205 210 215 217 214 211 208 208 209 210 210 212 210 202 196 194 194 194 193 192 193 193 191 191 193 195 195 198 196 195 199 202 207 208 204 194 182 181 181 185 189 186 186 194 203 210 215 218 210 201 196 186 177 170 163 170 179 176 170 163 160 162 151 130 116
196 188 195 209 210 205 207 212 211 214 212 202 196 194 195 202 203 202 204 205 207 211 212 211 210 211 211 211 212 211 213 215 209 203 199 198 200 199 194 192 193 193 191 191 195 197 192 191 191 193 197 201 210 208 199 188 177 178 185 183 180 181 182 184 191 205 216 218 218 211 204 202 192 179 172 172 173 176 178 171 167 171 166 150 136
180 179 210 207 202 200 205 211 212 213 211 202 197 196 195 199 202 203 205 205 206 208 207 206 207 211 212 210 211 211 214 215 207 204 205 204 204 201 196 195 196 196 193 187 190 195 192 187 185 194 200 195 199 201 191 184 176 175 182 175 166 168 173 175 179 198 214 214 209 209 204 202 198 182 173 169 162 165 176 179 176 175 175 166 149
153 4 267 208 197 202 204 206 213 215 210 201 197 197 195 195 199 201 202 204 206 207 205 204 205 208 208 208 210 211 213 212 207 207 209 208 205 200 195 197 200 201 197 189 190 192 186 184 183 193 207 199 192 190 186 186 182 176 174 167 165 168 170 171 173 188 205 210 206 207 203 201 196 179 172 170 160 162 173 181 182 179 176 171 157
141 136 210 196 198 204 204 207 216 211 203 198 195 196 198 198 201 202 202 206 207 206 206 205 204 205 206 207 209 212 211 208 207 208 209 207 203 200 199 200 201 204 204 197 194 189 179 187 191 191 200 206 198 188 185 187 185 182 177 167 162 163 171 174 170 179 190 197 201 202 199 197 191 178 177 179 173 168 174 181 181 179 177 173 166
169 182 182 198 206 208 204 201 203 193 190 193 191 194 201 203 207 209 207 207 206 207 210 209 208 207 208 209 209 211 208 206 208 208 208 204 201 201 204 206 204 207 208 199 191 183 179 191 198 198 194 193 196 190 187 191 190 185 177 168 165 160 163 177 180 189 195 194 194 191 187 186 182 180 185 190 186 176 179 182 179 176 176 175 173
179 201 184 192 201 201 195 176 104 108 177 189 191 201 212 210 211 213 210 209 208 211 213 212 214 211 211 212 208 206 205 205 207 208 206 203 204 204 206 211 209 208 203 191 184 184 187 192 196 205 202 191 189 185 184 192 196 192 177 166 170 167 159 178 189 191 192 187 184 182 181 183 183 184 188 193 191 183 181 177 169 172 177 174 173
187 207 179 185 190 187 185 169 131 130 173 190 191 193 204 209 209 208 208 210 210 213 213 211 212 211 211 211 206 201 202 203 205 205 204 203 206 205 204 208 205 200 192 180 179 184 189 194 198 205 207 203 196 184 183 189 192 207 202 178 171 177 176 181 181 173 172 175 174 173 174 179 183 186 189 190 188 184 177 171 171 177 179 175 168
194 196 176 182 180 177 178 168 150 152 171 189 187 182 190 201 203 203 205 207 208 212 213 210 210 209 208 207 205 200 198 201 201 201 199 199 200 195 196 200 194 188 182 175 179 184 185 194 203 206 205 209 207 192 186 186 187 204 214 203 190 196 192 185 172 156 160 175 177 171 169 176 182 188 191 185 182 183 175 176 189 192 188 185 179
191 188 179 180 177 176 177 169 157 157 167 180 182 182 191 200 203 206 209 209 209 212 213 211 210 210 207 204 204 201 200 200 197 197 197 195 194 190 191 193 185 180 179 179 185 187 186 193 202 206 203 203 208 203 190 183 188 199 205 206 209 231 217 199 182 165 165 173 184 180 172 178 182 184 188 181 180 185 184 188 200 200 195 193 190
189 189 182 183 184 183 178 172 167 161 161 171 180 186 197 205 207 209 212 213 214 215 214 211 210 210 207 203 201 201 201 200 197 197 194 189 186 186 188 186 180 178 180 183 188 189 187 193 199 202 203 201 205 207 199 192 193 197 199 200 209 232 226 211 205 194 179 171 176 183 177 181 183 181 185 183 185 192 193 198 198 194 198 197 189
193 194 181 183 190 190 181 176 177 176 171 174 182 191 204 212 211 211 213 214 216 219 217 210 207 206 204 199 197 198 199 197 194 191 185 180 180 183 184 181 179 181 182 184 188 188 189 194 199 201 202 202 202 204 207 207 200 197 200 197 203 211 201 200 208 214 195 173 173 182 177 176 180 181 183 182 184 187 189 188 179 177 186 186 179
197 193 180 180 187 190 188 185 187 189 189 188 189 194 206 213 215 216 215 215 217 219 216 210 205 201 198 196 194 196 195 189 186 184 181 178 178 182 183 180 180 184 183 184 186 186 190 195 199 204 204 200 200 200 206 213 206 204 208 202 201 197 191 195 199 202 198 182 177 178 174 173 175 173 170 173 176 170 164 160 155 160 168 168 167
192 184 179 184 189 189 193 196 199 202 203 203 203 202 205 211 216 218 218 219 221 220 215 209 204 199 196 196 194 193 189 185 184 184 182 180 180 183 182 180 181 185 184 183 185 186 189 193 196 203 205 202 201 199 201 210 209 209 213 213 214 209 202 203 199 194 194 190 182 174 170 172 174 167 160 162 165 157 146 144 149 157 163 162 162
Height
1513 1514 1515 1516 1517 1518 1519 1520 1521 1522 1523 1524 1524 1525 1526 1527 1528 1529 1530 1531 1532 1533 1533 1534 1535 1535 1536 1537 1538 1538 1538 1539 1539 1539 1540 1540 1540 1540 1540 1540 1540 1540 1540 1540 1540 1540 1540 1541 1541 1542 1542 1542 1542 1543 1543 1543 1543 1543 1543 1543 1542 1543 1543 1543 1542 1542 1542 1543 1543 1543 1543 1543 1542 1541 1542 1543 1543 1542 1541 1540 1540 1539 1539 1539 1539
1512 1514 1515 1516 1517 1518 1519 1520 1521 1522 1523 1524 1525 1526 1526 1528 1528 1530 1531 1532 1533 1533 1534 1535 1535 1536 1537 1538 1538 1539 1539 1540 1540 1540 1541 1541 1541 1541 1541 1541 1541 1541 1541 1541 1541 1541 1541 1542 1542 1543 1544 1544 1544 1544 1544 1544 1544 1544 1544 1544 1544 1544 1544 1544 1545 1544 1544 1544 1544 1544 1544 1544 1544 1544 1545 1545 1544 1543 1542 1542 1541 1540 1540 1540 1540
1512 1514 1515 1516 1517 1518 1519 1520 1521 1523 1524 1525 1525 1526 1527 1528 1529 1530 1531 1533 1533 1534 1535 1536 1536 1537 1538 1539 1539 1540 1540 1541 1541 1541 1542 1542 1542 1542 1543 1543 1542 1542 1542 1542 1542 1543 1543 1543 1544 1544 1545 1545 1545 1545 1546 1546 1545 1545 1545 1545 1545 1545 1545 1546 1546 1546 1546 1546 1545 1545 1545 1545 1545 1546 1546 1546 1545 1544 1544 1543 1543 1542 1542 1542 1542
1512 1513 1514 1516 1517 1518 1519 1520 1522 1523 1524 1525 1526 1526 1528 1529 1530 1531 1532 1533 1534 1535 1536 1536 1537 1538 1539 1539 1540 1541 1541 1542 1542 1542 1543 1543 1543 1544 1544 1544 1544 1543 1543 1543 1544 1544 1544 1545 1545 1546 1546 1547 1547 1547 1547 1547 1547 1547 1547 1547 1547 1547 1547 1547 1547 1547 1547 1547 1547 1546 1546 1546 1546 1547 1547 1546 1546 1545 1545 1544 1544 1544 1544 1544 1543
1512 1513 1514 1515 1517 1518 1520 1521 1522 1524 1525 1525 1526 1527 1528 1529 1530 1531 1532 1533 1534 1535 1536 1537 1538 1538 1539 1540 1541 1542 1542 1543 1543 1544 1544 1544 1545 1545 1545 1545 1545 1545 1545 1545 1545 1546 1546 1546 1547 1547 1548 1548 1548 1548 1548 1548 1548 1548 1548 1548 1548 1548 1547 1547 1547 1548 1548 1547 1548 1547 1547 1547 1547 1547 1547 1547 1546 1546 1545 1545 1545 1545 1545 1545 1545
1511 1513 1514 1515 1517 1518 1520 1522 1523 1524 1525 1526 1527 1528 1529 1530 1531 1532 1533 1534 1534 1536 1537 1538 1538 1539 1540 1540 1542 1542 1543 1544 1544 1545 1545 1545 1546 1546 1546 1546 1546 1546 1546 1546 1546 1547 1548 1548 1548 1549 1549 1549 1549 1549 1549 1549 1549 1549 1549 1549 1549 1549 1548 1548 1548 1548 1548 1548 1548 1548 1548 1548 1548 1547 1547 1547 1547 1546 1546 1546 1546 1546 1546 1546 1546
1511 1512 1514 1515 1517 1518 1520 1522 1523 1524 1525 1526 1527 1528 1529 1530 1531 1532 1533 1534 1535 1536 1537 1538 1539 1539 1540 1541 1542 1543 1544 1545 1545 1546 1546 1547 1547 1547 1547 1547 1547 1547 1547 1547 1547 1548 1549 1549 1550 1550 1550 1550 1550 1550 1550 1550 1550 1550 1550 1550 1550 1549 1548 1548 1548 1549 1549 1549 1549 1548 1548 1548 1548 1548 1548 1547 1547 1547 1547 1547 1546 1547 1547 1547 1547
1511 1512 1513 1515 1517 1518 1520 1522 1523 1524 1525 1526 1527 1528 1529 1530 1531 1532 1533 1534 1535 1536 1537 1538 1539 1540 1540 1541 1542 1544 1545 1545 1546 1546 1547 1547 1548 1548 1548 1548 1548 1548 1548 1548 1548 1549 1550 1550 1551 1551 1551 1551 1551 1551 1552 1552 1552 1551 1551 1551 1550 1549 1549 1549 1550 1550 1550 1550 1549 1549 1549 1548 1548 1548 1548 1548 1547 1547 1547 1547 1547 1547 1547 1547 1547
1511 1512 1513 1515 1517 1519 1520 1522 1523 1524 1525 1526 1527 1528 1529 1530 1531 1532 1533 1534 1535 1536 1537 1538 1539 1539 1540 1542 1543 1544 1545 1546 1546 1547 1548 1548 1549 1549 1549 1549 1549 1549 1549 1549 1550 1550 1551 1552 1552 1552 1552 1552 1552 1552 1553 1553 1553 1552 1552 1551 1550 1550 1550 1550 1551 1551 1550 1550 1550 1550 1550 1549 1549 1548 1548 1548 1548 1548 1547 1547 1547 1547 1547 1547 1547
1510 1512 1513 1515 1517 1519 1520 1522 1523 1524 1524 1525 1526 1528 1529 1530 1532 1533 1534 1534 1535 1536 1537 1537 1538 1539 1540 1542 1543 1544 1545 1546 1546 1547 1548 1549 1549 1549 1550 1550 1550 1550 1550 1550 1551 1552 1552 1553 1553 1553 1553 1553 1554 1554 1554 1554 1554 1553 1552 1551 1551 1551 1551 1551 1551 1551 1551 1551 1551 1551 1550 1550 1549 1549 1549 1548 1548 1548 1548 1548 1548 1548 1548 1548 1548
1510 1511 1513 1515 1517 1519 1520 1522 1522 1523 1524 1525 1526 1527 1529 1530 1531 1533 1534 1534 1535 1536 1537 1537 1538 1539 1541 1542 1543 1544 1545 1546 1547 1548 1548 1549 1550 1550 1550 1550 1551 1551 1551 1552 1552 1553 1553 1553 1554 1554 1554 1554 1555 1555 1555 1555 1555 1554 1553 1552 1552 1552 1552 1552 1552 1552 1552 1552 1552 1551 1551 1550 1550 1549 1549 1549 1549 1549 1549 1549 1549 1548 1548 1548 1548
1510 1511 1513 1515 1517 1518 1520 1521 1522 1523 1523 1524 1526 1527 1529 1530 1531 1532 1533 1534 1535 1536 1537 1538 1539 1540 1541 1542 1543 1544 1545 1546 1547 1548 1549 1549 1550 1550 1551 1551 1551 1552 1552 1552 1553 1553 1554 1554 1554 1555 1555 1556 1556 1556 1557 1556 1556 1555 1554 1553 1553 1553 1553 1554 1553 1553 1553 1553 1553 1552 1552 1551 1551 1550 1550 1550 1550 1550 1549 1549 1549 1549 1549 1549 1549
1509 1510 1512 1514 1516 1518 1519 1520 1521 1522 1523 1524 1526 1527 1528 1529 1531 1531 1532 1533 1534 1535 1536 1538 1539 1540 1541 1542 1543 1544 1545 1546 1547 1548 1549 1549 1550 1551 1551 1552 1552 1553 1553 1553 1554 1554 1554 1555 1555 1556 1556 1557 1557 1558 1557 1557 1556 1556 1555 1554 1555 1555 1555 1555 1555 1555 1554 1554 1554 1554 1553 1552 1551 1551 1551 1551 1551 1551 1551 1550 1550 1550 1550 1550 1550
1507 1509 1511 1513 1515 1516 1518 1519 1520 1522 1523 1524 1525 1527 1528 1529 1530 1530 1532 1533 1534 1535 1536 1537 1538 1539 1540 1541 1542 1544 1545 1546 1547 1548 1549 1549 1550 1551 1552 1552 1553 1553 1554 1554 1554 1555 1555 1555 1556 1557 1558 1558 1558 1558 1558 1558 1557 1556 1556 1556 1556 1557 1557 1557 1556 1556 1556 1556 1555 1555 1555 1554 1553 1552 1552 1552 1552 1552 1552 1551 1551 1551 1551 1551 1551
1507 1509 1511 1512 1513 1515 1516 1518 1520 1521 1523 1524 1525 1526 1527 1528 1529 1530 1531 1533 1534 1535 1535 1536 1538 1539 1540 1541 1542 1543 1544 1545 1546 1547 1548 1549 1550 1551 1552 1553 1553 1554 1554 1555 1555 1555 1556 1556 1557 1558 1559 1559 1559 1560 1560 1559 1558 1557 1556 1556 1558 1558 1558 1558 1558 1557 1557 1557 1557 1556 1556 1555 1554 1554 1553 1553 1553 1553 1553 1552 1552 1552 1552 1552 1552
1507 1509 1510 1511 1512 1513 1515 1517 1519 1521 1522 1523 1524 1525 1526 1527 1529 1530 1531 1533 1534 1534 1535 1536 1537 1538 1539 1540 1542 1543 1544 1545 1546 1547 1548 1549 1550 1551 1552 1553 1553 1554 1555 1555 1556 1556 1557 1557 1558 1559 1560 1560 1561 1561 1561 1560 1558 1557 1557 1558 1559 1559 1559 1559 1559 1558 1558 1558 1558 1558 1557 1557 1556 1555 1555 1554 1554 1554 1554 1554 1553 1553 1553 1553 1553
1507 1508 1509 1510 1511 1513 1514 1516 1518 1520 1521 1522 1523 1524 1526 1527 1529 1530 1532 1533 1533 1534 1535 1536 1536 1537 1539 1540 1541 1542 1544 1545 1546 1547 1548 1549 1550 1551 1552 1553 1554 1555 1555 1556 1556 1557 1558 1558 1560 1560 1561 1561 1562 1562 1561 1560 1559 1558 1559 1560 1560 1560 1560 1560 1560 1559 1559 1559 1558 1558 1558 1558 1557 1556 1556 1556 1555 1555 1555 1555 1554 1554 1554 1554 1554
1507 1508 1509 1510 1511 1513 1515 1516 1518 1519 1520 1521 1523 1524 1525 1527 1528 1530 1531 1532 1533 1534 1535 1535 1536 1537 1538 1539 1541 1542 1543 1544 1546 1547 1548 1549 1550 1551 1552 1553 1554 1555 1555 1556 1557 1558 1558 1559 1560 1561 1561 1562 1562 1563 1562 1561 1559 1559 1560 1561 1561 1561 1561 1561 1561 1560 1560 1560 1559 1559 1559 1559 1559 1558 1558 1557 1557 1557 1556 1556 1556 1556 1556 1555 1555
1507 1509 1510 1511 1512 1514 1515 1516 1517 1518 1520 1521 1522 1524 1525 1527 1528 1529 1530 1531 1532 1533 1535 1535 1536 1537 1538 1539 1540 1541 1543 1544 1545 1546 1547 1548 1549 1551 1552 1553 1554 1555 1555 1556 1557 1558 1559 1560 1560 1561 1562 1562 1563 1563 1563 1561 1561 1561 1561 1561 1562 1562 1562 1562 1562 1561 1561 1561 1560 1560 1560 1560 1560 1560 1559 1559 1558 1558 1558 1557 1557 1557 1557 1557 1557
1507 1509 1510 1512 1513 1514 1515 1516 1517 1518 1519 1521 1522 1524 1525 1527 1528 1529 1529 1531 1532 1533 1535 1536 1536 1537 1538 1539 1540 1541 1542 1543 1545 1546 1547 1548 1549 1551 1552 1553 1554 1555 1555 1556 1557 1558 1559 1560 1561 1562 1562 1563 1564 1564 1564 1562 1562 1562 1562 1562 1563 1563 1563 1563 1563 1562 1562 1562 1561 1561 1561 1561 1561 1561 1560 1560 1559 1559 1559 1559 1558 1558 1558 1558 1558
1507 1509 1511 1512 1513 1514 1515 1516 1517 1518 1520 1521 1522 1524 1525 1526 1527 1528 1529 1531 1532 1533 1535 1536 1537 1538 1538 1539 1540 1541 1542 1543 1544 1545 1546 1547 1549 1550 1552 1553 1554 1555 1555 1556 1557 1558 1560 1561 1561 1562 1563 1564 1564 1565 1564 1563 1563 1564 1564 1564 1564 1564 1564 1564 1564 1563 1563 1563 1562 1562 1562 1562 1562 1562 1561 1561 1561 1561 1560 1560 1560 1559 1559 1559 1559
1506 1508 1511 1512 1512 1514 1515 1516 1517 1518 1520 1521 1522 1523 1524 1525 1526 1528 1529 1530 1532 1533 1534 1536 1537 1537 1538 1539 1540 1541 1542 1543 1544 1545 1546 1547 1548 1550 1551 1552 1554 1555 1555 1556 1557 1558 1560 1561 1562 1562 1563 1564 1565 1565 1565 1564 1565 1565 1565 1565 1565 1565 1565 1565 1565 1564 1564 1563 1563 1562 1562 1562 1562 1562 1562 1562 1562 1562 1561 1561 1561 1560 1560 1560 1560
1506 1508 1510 1511 1512 1514 1515 1516 1517 1518 1519 1520 1521 1522 1523 1524 1526 1527 1528 1530 1531 1532 1533 1535 1536 1537 1538 1539 1540 1541 1542 1543 1543 1544 1545 1546 1548 1550 1551 1552 1553 1554 1555 1556 1557 1558 1560 1561 1562 1563 1563 1564 1565 1565 1565 1565 1565 1566 1566 1566 1566 1566 1566 1566 1565 1565 1565 1564 1564 1563 1563 1563 1563 1563 1563 1563 1563 1563 1563 1562 1562 1562 1561 1561 1561
1506 1508 1510 1511 1513 1514 1515 1516 1517 1518 1519 1520 1521 1521 1522 1523 1525 1526 1528 1529 1530 1532 1533 1534 1536 1536 1537 1538 1539 1540 1541 1542 1543 1544 1545 1546 1548 1549 1550 1551 1553 1554 1555 1556 1557 1558 1560 1561 1562 1563 1564 1565 1565 1565 1566 1566 1565 1566 1566 1566 1566 1566 1566 1566 1566 1566 1566 1565 1564 1564 1564 1564 1564 1564 1564 1563 1563 1563 1563 1563 1563 1563 1563 1563 1562
1508 1510 1511 1512 1513 1514 1515 1516 1517 1518 1519 1520 1521 1521 1522 1523 1524 1526 1527 1529 1530 1531 1532 1534 1535 1535 1536 1538 1539 1540 1541 1541 1542 1544 1545 1546 1547 1549 1550 1551 1552 1553 1554 1555 1557 1558 1560 1561 1562 1563 1564 1565 1565 1566 1566 1566 1566 1566 1566 1566 1566 1566 1566 1567 1567 1567 1566 1565 1565 1565 1565 1565 1564 1564 1564 1564 1564 1564 1564 1564 1564 1564 1564 1563 1563
1509 1510 1511 1511 1512 1513 1515 1515 1517 1518 1519 1520 1521 1522 1522 1523 1524 1526 1527 1528 1530 1531 1532 1533 1534 1534 1536 1537 1538 1539 1540 1541 1542 1543 1545 1546 1548 1549 1550 1551 1552 1553 1554 1555 1556 1558 1559 1561 1562 1563 1564 1565 1565 1566 1567 1567 1567 1566 1566 1566 1566 1566 1567 1567 1567 1567 1567 1566 1566 1565 1565 1565 1565 1565 1565 1564 1564 1564 1564 1564 1564 1564 1564 1564 1564
1509 1509 1509 1510 1512 1513 1514 1515 1516 1517 1518 1520 1521 1522 1523 1524 1525 1525 1526 1527 1529 1530 1531 1532 1533 1534 1535 1537 1538 1538 1540 1540 1542 1543 1545 1546 1548 1549 1550 1550 1551 1552 1553 1555 1556 1558 1559 1561 1562 1563 1564 1564 1564 1565 1567 1567 1567 1566 1566 1566 1566 1566 1567 1567 1567 1567 1567 1567 1566 1566 1566 1565 1565 1565 1565 1565 1565 1564 1564 1565 1565 1565 1564 1564 1564
1507 1508 1509 1510 1511 1512 1512 1514 1515 1516 1517 1518 1520 1521 1523 1524 1525 1525 1526 1528 1529 1530 1531 1532 1533 1534 1535 1536 1537 1538 1539 1540 1541 1543 1544 1546 1547 1549 1550 1550 1551 1552 1553 1554 1556 1558 1559 1560 1562 1563 1564 1564 1563 1564 1566 1566 1566 1566 1566 1566 1566 1566 1566 1567 1567 1567 1567 1567 1567 1566 1566 1566 1566 1565 1565 1565 1565 1565 1565 1565 1565 1565 1565 1564 1564
1507 1508 1510 1510 1510 1510 1511 1513 1514 1514 1516 1517 1519 1521 1523 1524 1525 1525 1526 1528 1529 1530 1531 1532 1533 1534 1535 1536 1537 1538 1539 1540 1541 1542 1544 1545 1547 1548 1549 1550 1551 1551 1553 1554 1556 1558 1559 1560 1562 1562 1563 1562 1562 1563 1565 1565 1565 1566 1566 1566 1566 1566 1566 1567 1567 1567 1567 1567 1567 1567 1567 1566 1566 1566 1566 1566 1565 1565 1565 1565 1565 1565 1565 1565 1565
1508 1509 1509 1509 1509 1510 1511 1512 1513 1514 1515 1517 1519 1521 1522 1523 1525 1526 1527 1528 1529 1530 1531 1532 1533 1534 1535 1536 1537 1538 1538 1539 1540 1541 1543 1545 1546 1547 1549 1550 1550 1552 1553 1555 1556 1558 1559 1560 1561 1561 1561 1561 1562 1563 1564 1565 1565 1565 1565 1566 1566 1566 1566 1567 1567 1567 1567 1567 1567 1567 1567 1567 1567 1566 1566 1566 1566 1566 1566 1566 1566 1566 1566 1565 1565
1508 1510 1510 1511 1511 1511 1512 1512 1513 1514 1515 1517 1519 1521 1522 1523 1525 1526 1527 1528 1529 1530 1531 1532 1533 1534 1535 1536 1537 1537 1538 1538 1539 1540 1542 1544 1546 1547 1548 1549 1550 1552 1553 1555 1557 1558 1559 1560 1560 1561 1561 1561 1562 1562 1563 1564 1564 1565 1565 1565 1566 1566 1566 1567 1567 1567 1567 1568 1568 1567 1567 1567 1567 1567 1567 1567 1566 1566 1566 1566 1566 1566 1566 1566 1566
1509 1511 1514 1515 1516 1515 1515 1514 1514 1514 1515 1517 1519 1521 1522 1524 1526 1526 1527 1528 1529 1530 1532 1532 1533 1534 1535 1536 1537 1538 1538 1538 1539 1540 1542 1543 1545 1546 1548 1549 1550 1551 1553 1555 1557 1558 1559 1560 1561 1560 1561 1561 1562 1562 1562 1563 1564 1564 1565 1565 1565 1565 1566 1566 1567 1567 1568 1568 1568 1568 1568 1568 1568 1568 1567 1567 1567 1567 1567 1567 1567 1567 1567 1566 1566
1511 1512 1515 1518 1520 1520 1519 1517 1516 1515 1516 1517 1518 1521 1522 1524 1526 1527 1527 1528 1529 1530 1531 1532 1533 1534 1534 1535 1537 1537 1538 1538 1539 1540 1541 1543 1544 1546 1547 1548 1550 1551 1553 1555 1555 1556 1559 1561 1561 1560 1560 1561 1561 1562 1562 1562 1563 1564 1564 1564 1564 1565 1566 1566 1567 1567 1568 1568 1568 1568 1568 1568 1568 1568 1568 1568 1568 1568 1568 1568 1568 1568 1567 1567 1567
1510 1512 1513 1515 1518 1520 1521 1521 1519 1517 1517 1518 1519 1521 1523 1524 1526 1527 1527 1528 1529 1530 1531 1531 1532 1533 1534 1535 1536 1537 1538 1538 1538 1539 1540 1542 1544 1545 1546 1547 1549 1551 1553 1555 1554 1556 1559 1560 1560 1560 1560 1560 1561 1561 1561 1562 1562 1563 1563 1563 1564 1564 1565 1566 1567 1568 1568 1568 1568 1568 1568 1568 1568 1568 1568 1568 1569 1569 1569 1570 1569 1569 1568 1568 1568
1505 1507 1509 1511 1512 1515 1518 1520 1520 1519 1518 1519 1520 1522 1524 1525 1526 1526 1527 1528 1529 1529 1530 1531 1532 1533 1534 1535 1535 1536 1538 1538 1538 1539 1540 1541 1543 1544 1545 1547 1549 1551 1553 1554 1553 1556 1559 1558 1559 1559 1560 1560 1560 1561 1561 1561 1562 1563 1562 1562 1563 1564 1565 1566 1567 1567 1568 1568 1569 1569 1569 1569 1569 1569 1569 1569 1569 1570 1570 1570 1571 1570 1570 1569 1569
1498 1502 1506 1509 1509 1510 1512 1515 1519 1520 1519 1520 1522 1524 1526 1526 1526 1526 1527 1527 1528 1529 1530 1531 1532 1533 1534 1534 1535 1536 1537 1538 1538 1539 1539 1541 1542 1544 1545 1546 1549 1550 1552 1554 1553 1555 1558 1558 1557 1558 1559 1560 1560 1560 1561 1561 1561 1562 1562 1562 1562 1563 1564 1566 1567 1567 1568 1568 1569 1569 1569 1569 1569 1569 1569 1569 1570 1570 1570 1571 1571 1571 1571 1571 1571
1496 1499 1503 1508 1509 1509 1509 1512 1517 1518 1519 1520 1522 1525 1526 1526 1525 1525 1526 1526 1527 1528 1529 1530 1531 1532 1533 1534 1535 1536 1537 1537 1538 1539 1539 1541 1542 1543 1544 1546 1548 1550 1552 1553 1553 1554 1556 1557 1557 1558 1559 1559 1559 1560 1560 1561 1561 1562 1562 1561 1562 1563 1564 1565 1566 1567 1567 1568 1569 1569 1569 1569 1570 1570 1570 1570 1570 1571 1571 1571 1572 1572 1572 1572 1572
1500 1502 1504 1508 1509 1508 1507 1509 1515 1516 1516 1519 1520 1522 1523 1524 1524 1525 1526 1526 1526 1527 1528 1529 1530 1531 1533 1534 1535 1535 1536 1537 1537 1538 1539 1541 1542 1543 1544 1545 1547 1549 1551 1552 1552 1553 1554 1555 1556 1557 1558 1559 1559 1560 1560 1561 1561 1561 1561 1562 1562 1563 1564 1565 1566 1567 1567 1568 1569 1569 1569 1569 1570 1570 1571 1571 1571 1571 1571 1571 1572 1573 1573 1573 1572
1504 1506 1507 1508 1508 1508 1507 1509 1515 1516 1515 1518 1519 1520 1521 1521 1523 1525 1525 1525 1525 1526 1527 1528 1529 1530 1532 1533 1534 1535 1536 1536 1537 1538 1539 1540 1541 1542 1543 1544 1546 1547 1550 1551 1551 1551 1552 1554 1555 1556 1557 1558 1560 1561 1561 1560 1561 1561 1561 1561 1562 1563 1563 1564 1565 1566 1567 1568 1569 1569 1569 1569 1570 1571 1571 1571 1571 1572 1572 1572 1572 1573 1573 1573 1573
1506 1507 1507 1509 1509 1510 1509 1509 1514 1515 1515 1518 1518 1518 1519 1520 1522 1523 1524 1524 1525 1525 1526 1527 1529 1530 1531 1533 1534 1535 1535 1536 1536 1537 1539 1540 1541 1542 1543 1544 1545 1546 1548 1550 1550 1551 1551 1553 1555 1556 1557 1558 1560 1561 1561 1560 1560 1561 1561 1561 1562 1562 1563 1564 1565 1566 1567 1568 1568 1568 1569 1569 1570 1571 1571 1572 1572 1572 1572 1572 1573 1573 1573 1573 1573
1503 1503 1502 1505 1507 1507 1507 1509 1511 1512 1514 1517 1518 1518 1519 1519 1520 1521 1522 1523 1524 1525 1526 1527 1528 1529 1531 1532 1533 1534 1535 1535 1536 1537 1538 1540 1541 1542 1542 1543 1544 1546 1547 1549 1550 1550 1551 1552 1555 1557 1557 1558 1559 1560 1560 1560 1560 1560 1561 1561 1561 1562 1563 1563 1564 1566 1567 1567 1568 1568 1569 1569 1570 1571 1571 1572 1572 1572 1573 1573 1573 1573 1574 1574 1574
1498 1497 1496 1499 1503 1504 1505 1508 1509 1507 1510 1516 1519 1519 1519 1519 1519 1520 1521 1522 1523 1524 1525 1526 1527 1529 1530 1532 1533 1534 1534 1535 1536 1537 1538 1539 1541 1542 1542 1543 1544 1546 1547 1548 1549 1549 1550 1552 1554 1556 1558 1558 1559 1559 1559 1559 1559 1560 1560 1560 1561 1562 1563 1563 1564 1565 1566 1567 1568 1568 1569 1569 1570 1571 1572 1572 1572 1573 1573 1573 1573 1573 1574 1574 1574
1495 1493 1494 1497 1500 1501 1502 1507 1509 1509 1512 1518 1520 1519 1519 1519 1519 1519 1520 1522 1523 1524 1524 1525 1527 1528 1530 1531 1533 1533 1534 1535 1536 1537 1538 1539 1541 1542 1542 1543 1544 1546 1546 1547 1547 1548 1550 1552 1553 1555 1557 1558 1559 1559 1559 1559 1559 1559 1560 1560 1561 1562 1563 1563 1564 1565 1565 1566 1567 1568 1569 1569 1570 1571 1572 1572 1572 1573 1573 1573 1573 1574 1574 1574 1574
1493 1493 1495 1497 1498 1499 1500 1503 1507 1510 1515 1518 1519 1520 1519 1518 1518 1518 1520 1521 1522 1522 1523 1524 1526 1527 1529 1530 1532 1533 1533 1534 1536 1537 1538 1539 1540 1541 1542 1543 1544 1545 1546 1547 1547 1547 1549 1551 1553 1555 1556 1557 1558 1558 1559 1559 1558 1559 1560 1561 1562 1562 1563 1563 1564 1565 1566 1566 1567 1568 1569 1570 1570 1571 1572 1572 1572 1573 1573 1573 1574 1574 1574 1574 1574
1492 1492 1494 1496 1498 1499 1499 1500 1499 1504 1509 1510 1512 1515 1515 1515 1515 1516 1518 1519 1520 1520 1521 1522 1524 1526 1528 1530 1531 1532 1533 1534 1536 1537 1538 1539 1540 1541 1542 1543 1544 1545 1546 1547 1547 1548 1550 1551 1552 1554 1555 1557 1557 1558 1558 1558 1558 1559 1559 1560 1561 1562 1562 1563 1564 1565 1566 1566 1567 1568 1569 1570 1570 1571 1571 1572 1572 1573 1573 1574 1574 1574 1574 1574 1574
1492 1493 1494 1496 1498 1499 1499 1498 1495 1497 1502 1505 1506 1508 1509 1510 1511 1512 1513 1515 1517 1518 1519 1521 1523 1525 1527 1529 1531 1532 1533 1534 1535 1536 1537 1538 1539 1541 1542 1543 1544 1544 1545 1546 1547 1549 1550 1551 1552 1554 1555 1556 1557 1557 1557 1558 1558 1559 1560 1560 1560 1560 1560 1562 1563 1565 1566 1567 1567 1568 1569 1570 1570 1571 1571 1571 1572 1573 1573 1574 1574 1574 1574 1574 1574
1493 1494 1495 1496 1498 1499 1499 1497 1494 1494 1498 1502 1504 1505 1506 1506 1507 1508 1510 1511 1514 1515 1517 1520 1522 1524 1527 1529 1530 1532 1533 1534 1535 1535 1536 1537 1539 1540 1541 1543 1544 1544 1544 1545 1547 1549 1550 1551 1552 1553 1555 1556 1556 1557 1557 1557 1558 1558 1559 1559 1559 1559 1559 1560 1562 1563 1565 1566 1567 1568 1569 1570 1570 1571 1571 1572 1572 1573 1573 1573 1574 1574 1574 1574 1574
1494 1494 1495 1496 1497 1498 1498 1498 1497 1495 1495 1498 1502 1504 1505 1505 1506 1507 1508 1510 1512 1514 1517 1519 1521 1523 1526 1527 1529 1531 1532 1533 1534 1535 1536 1537 1538 1539 1541 1542 1543 1544 1545 1546 1547 1549 1550 1551 1552 1553 1554 1555 1556 1557 1557 1557 1557 1557 1558 1558 1559 1559 1559 1560 1561 1561 1562 1564 1566 1568 1569 1570 1570 1571 1571 1572 1572 1573 1573 1574 1574 1574 1574 1574 1574
1494 1494 1495 1496 1497 1498 1499 1499 1498 1497 1495 1495 1498 1502 1504 1505 1506 1506 1507 1510 1512 1514 1517 1519 1521 1522 1524 1526 1528 1530 1531 1533 1534 1535 1536 1536 1538 1539 1541 1542 1542 1544 1545 1546 1547 1548 1550 1551 1552 1553 1554 1555 1556 1557 1558 1557 1557 1557 1557 1557 1558 1558 1559 1560 1561 1561 1561 1563 1565 1566 1568 1569 1570 1571 1571 1572 1572 1573 1573 1574 1574 1574 1574 1574 1574
1495 1494 1495 1495 1496 1498 1499 1499 1499 1499 1498 1498 1498 1500 1503 1505 1507 1508 1509 1511 1513 1515 1517 1519 1520 1522 1524 1525 1527 1529 1530 1532 1533 1534 1535 1536 1538 1539 1540 1541 1542 1544 1545 1546 1547 1548 1549 1551 1552 1553 1554 1555 1556 1557 1557 1558 1557 1557 1557 1557 1557 1557 1558 1559 1560 1560 1561 1562 1563 1565 1566 1568 1569 1570 1571 1572 1572 1573 1574 1574 1574 1574 1574 1574 1574
1495 1495 1496 1497 1498 1498 1499 1500 1500 1501 1501 1502 1502 1502 1503 1505 1507 1509 1511 1513 1515 1516 1518 1519 1521 1522 1524 1525 1526 1528 1529 1531 1532 1533 1535 1536 1537 1539 1540 1541 1542 1544 1545 1546 1547 1548 1549 1551 1551 1552 1553 1554 1555 1556 1557 1557 1557 1557 1557 1557 1557 1557 1557 1558 1559 1559 1560 1561 1562 1564 1566 1568 1569 1570 1571 1572 1573 1573 1574 1574 1574 1574 1574 1574 1575